UEX YSSY-YSSY

Flight info

Callsign UEX
Flight time 0h 3m
Altitude 1000
Route YSSY
Aircraft SR22/L-SDE3FGHIRWY/LB1

Departure

Time 2026-04-20 03:34
Airport Sydney Kingsford Smith International Airport (YSSY)

Arrival

Time 2026-04-20 03:37
Airport Sydney Kingsford Smith International Airport (YSSY)
Time Latitude Longitude Altitude Speed Heading
2026-04-20 03:21 -33.92765 151.17494 25 ft 0 kts 77°
2026-04-20 03:23 -33.92765 151.17493 25 ft 0 kts 77°
2026-04-20 03:24 -33.92766 151.17493 25 ft 0 kts 77°
2026-04-20 03:25 -33.92766 151.17492 25 ft 0 kts 77°
2026-04-20 03:28 -33.92766 151.17491 25 ft 0 kts 77°
2026-04-20 03:28 -33.92863 151.17381 17 ft 17 kts 189°
2026-04-20 03:29 -33.92977 151.17418 19 ft 27 kts 117°
2026-04-20 03:29 -33.93081 151.17521 27 ft 25 kts 195°
2026-04-20 03:29 -33.93254 151.17558 25 ft 21 kts 166°
2026-04-20 03:29 -33.93423 151.17595 25 ft 16 kts 188°
2026-04-20 03:30 -33.93546 151.17601 23 ft 19 kts 165°
2026-04-20 03:30 -33.93666 151.17652 24 ft 6 kts 142°
2026-04-20 03:30 -33.93667 151.17653 28 ft 0 kts 142°
2026-04-20 03:31 -33.93703 151.17673 21 ft 12 kts 160°
2026-04-20 03:31 -33.93813 151.17704 14 ft 19 kts 173°
2026-04-20 03:32 -33.93885 151.17602 14 ft 16 kts 252°
2026-04-20 03:32 -33.93896 151.17555 14 ft 0 kts 257°
2026-04-20 03:32 -33.93914 151.17473 13 ft 18 kts 255°
2026-04-20 03:33 -33.94079 151.17456 14 ft 53 kts 167°
2026-04-20 03:33 -33.94553 151.17585 104 ft 74 kts 171°
2026-04-20 03:33 -33.95044 151.17721 164 ft 74 kts 172°
2026-04-20 03:33 -33.95601 151.17877 405 ft 90 kts 169°
2026-04-20 03:34 -33.96148 151.18179 779 ft 95 kts 128°
2026-04-20 03:34 -33.96104 151.19052 861 ft 110 kts 84°
2026-04-20 03:34 -33.95849 151.19900 979 ft 111 kts 79°
2026-04-20 03:34 -33.95557 151.20795 969 ft 122 kts 71°
2026-04-20 03:35 -33.94844 151.21375 966 ft 132 kts
2026-04-20 03:35 -33.93943 151.21200 881 ft 130 kts 345°
2026-04-20 03:35 -33.93092 151.20895 794 ft 128 kts 335°
2026-04-20 03:35 -33.92608 151.20236 779 ft 86 kts 265°
2026-04-20 03:36 -33.92711 151.19607 710 ft 80 kts 235°
2026-04-20 03:36 -33.92930 151.19002 656 ft 75 kts 231°
2026-04-20 03:36 -33.93315 151.18693 493 ft 66 kts 189°
2026-04-20 03:36 -33.93753 151.18626 380 ft 60 kts 181°
2026-04-20 03:37 -33.94173 151.18656 267 ft 63 kts 174°
2026-04-20 03:37 -33.94602 151.18740 164 ft 61 kts 174°
2026-04-20 03:37 -33.95006 151.18846 97 ft 56 kts 172°
2026-04-20 03:37 -33.95343 151.18972 16 ft 48 kts 172°
2026-04-20 03:38 -33.95753 151.19054 107 ft 71 kts 174°
2026-04-20 03:38 -33.96269 151.19194 342 ft 79 kts 169°
2026-04-20 03:38 -33.96830 151.19414 619 ft 91 kts 142°
2026-04-20 03:38 -33.96953 151.20273 797 ft 129 kts 78°
2026-04-20 03:39 -33.96640 151.21291 940 ft 136 kts 83°
2026-04-20 03:39 -33.95921 151.22026 986 ft 157 kts
2026-04-20 03:39 -33.94826 151.21820 947 ft 158 kts 347°
2026-04-20 03:39 -33.93785 151.21503 997 ft 150 kts 342°
2026-04-20 03:40 -33.92796 151.21145 950 ft 147 kts 338°
2026-04-20 03:40 -33.91857 151.20760 971 ft 140 kts 336°
2026-04-20 03:40 -33.90943 151.20377 879 ft 139 kts 339°
2026-04-20 03:40 -33.90085 151.20030 926 ft 118 kts 337°
2026-04-20 03:41 -33.89325 151.19680 949 ft 111 kts 332°
2026-04-20 03:41 -33.88610 151.19357 828 ft 108 kts 342°
2026-04-20 03:41 -33.87892 151.19211 667 ft 109 kts 339°
2026-04-20 03:41 -33.87460 151.18573 719 ft 98 kts 248°
2026-04-20 03:42 -33.87933 151.18063 771 ft 107 kts 208°
2026-04-20 03:42 -33.88594 151.17610 841 ft 105 kts 202°
2026-04-20 03:42 -33.89292 151.17379 862 ft 107 kts 176°
2026-04-20 03:42 -33.90041 151.17587 914 ft 111 kts 166°
2026-04-20 03:43 -33.90783 151.17816 916 ft 110 kts 166°
2026-04-20 03:43 -33.91536 151.18011 893 ft 119 kts 171°
2026-04-20 03:43 -33.92330 151.18177 906 ft 115 kts 171°
2026-04-20 03:43 -33.93114 151.18389 752 ft 113 kts 169°
2026-04-20 03:44 -33.93795 151.18535 494 ft 89 kts 168°
2026-04-20 03:44 -33.94341 151.18679 263 ft 74 kts 168°
2026-04-20 03:44 -33.94814 151.18799 59 ft 62 kts 171°
2026-04-20 03:44 -33.95182 151.18890 17 ft 38 kts 168°
2026-04-20 03:45 -33.95375 151.18926 16 ft 19 kts 207°
2026-04-20 03:45 -33.95330 151.18776 19 ft 19 kts 317°
2026-04-20 03:45 -33.95314 151.18759 19 ft 0 kts 316°
2026-04-20 03:45 -33.95282 151.18724 20 ft 19 kts 316°
2026-04-20 03:46 -33.95162 151.18592 18 ft 27 kts 317°
2026-04-20 03:46 -33.95125 151.18402 19 ft 23 kts 259°
2026-04-20 03:46 -33.95156 151.18230 19 ft 20 kts 259°
2026-04-20 03:46 -33.95173 151.18136 21 ft 5 kts 256°
2026-04-20 03:47 -33.95135 151.18043 21 ft 24 kts 347°
2026-04-20 03:47 -33.94952 151.17994 18 ft 27 kts 346°
2026-04-20 03:47 -33.94759 151.17944 18 ft 29 kts 347°
2026-04-20 03:47 -33.94597 151.17903 20 ft 21 kts 346°
2026-04-20 03:48 -33.94472 151.17900 19 ft 18 kts 37°
2026-04-20 03:48 -33.94327 151.17890 20 ft 18 kts 344°
2026-04-20 03:48 -33.94273 151.17968 20 ft 10 kts 137°
2026-04-20 03:48 -33.94345 151.17992 20 ft 10 kts 165°